Printer-friendly version

IAU Minor Planet Center

Minor Planet Center

MPEC 1999-T44: 1999 TB10

The following Minor Planet Electronic Circular may be linked-to from your own Web pages, but must not otherwise be redistributed electronically.


Read MPEC 1999-T43 Read MPEC 1999-T45


M.P.E.C. 1999-T44                                Issued 1999 Oct. 11, 16:57 UT

     The Minor Planet Electronic Circulars contain information on unusual
         minor planets and routine data on comets.  They are published
   on behalf of Commission 20 of the International Astronomical Union by the
          Minor Planet Center, Smithsonian Astrophysical Observatory,
                          Cambridge, MA 02138, U.S.A.

             BMARSDEN@CFA.HARVARD.EDU or GWILLIAMS@CFA.HARVARD.EDU
          URL http://cfa-www.harvard.edu/iau/mpc.html  ISSN 1523-6714

                                   1999 TB10

Observations:
     J99T10B* C1999 10 07.25563 23 36 27.51 +01 56 27.7          18.5        704
     J99T10B  C1999 10 07.26721 23 36 25.83 +01 56 33.1          18.9        704
     J99T10B  C1999 10 07.27894 23 36 24.07 +01 56 39.3          19.1        704
     J99T10B  C1999 10 08.03663 23 34 35.04 +02 02 28.7          18.2 R      046
     J99T10B  C1999 10 08.03814 23 34 34.82 +02 02 29.4                      046
     J99T10B  C1999 10 08.03962 23 34 34.58 +02 02 30.9                      046
     J99T10B  C1999 10 08.04127 23 34 34.33 +02 02 31.1                      046
     J99T10B  C1999 10 08.04282 23 34 34.14 +02 02 31.9          17.9 R      046
     J99T10B  C1999 10 08.05163 23 34 32.88 +02 02 34.8                      118
     J99T10B  C1999 10 08.05498 23 34 32.34 +02 02 36.9                      118
     J99T10B  C1999 10 08.05865 23 34 31.77 +02 02 39.6                      118
     J99T10B  C1999 10 08.11157 23 34 25.54 +02 03 05.7          19.0        704
     J99T10B  C1999 10 08.14308 23 34 20.85 +02 03 21.0          19.3        704
     J99T10B  C1999 10 08.15900 23 34 18.56 +02 03 28.5          18.9        704
     J99T10B  C1999 10 08.27399 23 34 01.59 +02 04 21.8          18.6 R      684
     J99T10B  C1999 10 08.27737 23 34 01.09 +02 04 23.5          18.5 R      684
     J99T10B  C1999 10 09.16436 23 31 56.45 +02 11 18.9          19.1        704
     J99T10B  C1999 10 09.17182 23 31 55.40 +02 11 23.1          19.0        704
     J99T10B  C1999 10 09.18102 23 31 54.06 +02 11 27.5          19.4        704
     J99T10B  C1999 10 09.18791 23 31 53.06 +02 11 31.3          19.3        704
     J99T10B  C1999 10 09.19648 23 31 51.80 +02 11 34.9          19.0        704
     J99T10B  C1999 10 09.20337 23 31 50.73 +02 11 38.0          19.3        704
     J99T10B  C1999 10 09.21191 23 31 49.50 +02 11 42.2          19.2        704
     J99T10B  C1999 10 09.21882 23 31 48.49 +02 11 45.6          19.0        704
     J99T10B  C1999 10 09.22736 23 31 47.31 +02 11 49.3          19.2        704
     J99T10B  C1999 10 09.23426 23 31 46.30 +02 11 53.0          19.2        704
     J99T10B  C1999 10 10.04593 23 29 53.62 +02 18 29.2          19.1 V      859
     J99T10B  C1999 10 10.04965 23 29 53.12 +02 18 31.6          18.7 V      859
     J99T10B  C1999 10 10.17921 23 29 35.54 +02 19 17.6          19.0        704
     J99T10B  C1999 10 10.19468 23 29 33.29 +02 19 24.8          19.4        704
     J99T10B  C1999 10 10.21012 23 29 31.11 +02 19 32.9          19.4        704
     J99T10B  C1999 10 10.22558 23 29 28.90 +02 19 39.0          19.2        704
     J99T10B  C1999 10 10.24095 23 29 26.71 +02 19 47.3          19.0        704

Observer details:
046 Klet.  Observers M. Tichy, Z. Moravec.  0.57-m f/5.2 reflector + CCD.
118 Modra.  Observers L. Kornos, P. Koleny.  0.6-m f/5.5 reflector + CCD.
684 Prescott.  Observer P. G. Comba.  0.46-m f/4.5 reflector + CCD.
704 Lincoln Laboratory ETS, New Mexico.  Observers M. Blythe, F. Shelly,
    M. Bezpalko, M. Elowitz.  Measurers J. Stuart, H. Viggh, R. Sayer.  1.0-m
    f/2.15 reflector + CCD.
859 Wykrota Observatory-CEAMIG.  Observer C. Jacques.  0.3-m f/3.3
    Schmidt-Cassegrain + CCD.

Orbital elements:
1999 TB10
Epoch 1999 Oct. 9.0 TT = JDT 2451460.5                  Williams
M 252.43587              (2000.0)            P               Q
n   0.61549171     Peri.  136.67394     -0.75002884     -0.66133413
a   1.3687409      Node     2.00055     +0.50535695     -0.58246186
e   0.2347519      Incl.   16.11642     +0.42669789     -0.47262602
P   1.60           H   18.4           G   0.15
From 33 observations 1999 Oct. 7-10.

Ephemeris:
1999 TB10                a,e,i = 1.37, 0.23, 16                  q = 1.0474
Date    TT    R. A. (2000) Decl.     Delta      r     Elong.  Phase     V
1999 10 09    23 32.32   +02 10.2    0.551    1.526   158.7    13.7    18.8
1999 10 19    23 11.47   +03 30.9    0.572    1.498   144.3    22.9    19.2
1999 10 29    22 57.08   +04 57.2    0.608    1.468   131.4    30.5    19.5
1999 11 08    22 49.72   +06 30.5    0.654    1.437   120.3    36.5    19.8
1999 11 18    22 48.88   +08 13.1    0.705    1.404   110.9    41.1    20.0
1999 11 28    22 53.53   +10 06.7    0.756    1.370   102.9    44.6    20.2
1999 12 08    23 02.72   +12 12.0    0.804    1.335    96.0    47.2    20.3
1999 12 18    23 15.77   +14 29.6    0.847    1.300    90.1    49.2    20.4
1999 12 28    23 32.16   +16 58.9    0.884    1.264    85.1    50.8    20.5
2000 01 07    23 51.63   +19 38.2    0.913    1.229    80.7    52.1    20.6
2000 01 17    00 14.17   +22 25.5    0.934    1.195    77.1    53.3    20.6
2000 01 27    00 39.86   +25 16.9    0.947    1.163    74.0    54.5    20.6
2000 02 06    01 08.99   +28 06.8    0.952    1.133    71.5    55.6    20.6
2000 02 16    01 41.97   +30 48.0    0.951    1.107    69.6    56.8    20.6
2000 02 26    02 19.10   +33 09.8    0.944    1.084    68.2    57.9    20.5
2000 03 07    03 00.61   +34 58.7    0.933    1.066    67.2    59.1    20.5
2000 03 17    03 46.22   +35 59.7    0.920    1.054    66.7    60.1    20.5
2000 03 27    04 34.94   +35 57.6    0.909    1.048    66.5    60.8    20.5
2000 04 06    05 25.13   +34 41.7    0.900    1.048    66.7    61.3    20.5
2000 04 16    06 14.82   +32 09.9    0.897    1.055    67.1    61.3    20.5
2000 04 26    07 02.26   +28 29.2    0.902    1.067    67.8    60.8    20.5
2000 05 06    07 46.49   +23 54.8    0.915    1.085    68.5    59.9    20.5
2000 05 16    08 27.28   +18 45.1    0.938    1.108    69.1    58.5    20.6
2000 05 26    09 04.87   +13 18.2    0.971    1.135    69.7    56.9    20.7
2000 06 05    09 39.80   +07 49.0    1.014    1.165    70.1    55.0    20.8
2000 06 15    10 12.70   +02 28.2    1.064    1.197    70.2    53.0    20.9
2000 06 25    10 44.09   -02 37.2    1.123    1.231    70.1    50.9    21.0
2000 07 05    11 14.50   -07 23.1    1.187    1.266    69.6    48.8    21.1
2000 07 15    11 44.33   -11 47.7    1.258    1.302    68.9    46.8    21.2
2000 07 25    12 13.90   -15 49.8    1.333    1.337    67.8    44.7    21.4
2000 08 04    12 43.49   -19 29.1    1.412    1.372    66.5    42.7    21.5
2000 08 14    13 13.31   -22 45.6    1.494    1.406    64.9    40.7    21.6
2000 08 24    13 43.47   -25 38.8    1.579    1.438    63.1    38.8    21.7
2000 09 03    14 14.08   -28 08.6    1.666    1.470    60.9    36.9    21.8

Gareth V. Williams           (C) Copyright 1999 MPC           M.P.E.C. 1999-T44

Read MPEC 1999-T43 Read MPEC 1999-T45


Our Web policy. Index to the CBAT/MPC/ICQ pages.


Valid HTML 4.01!